Regional Weather Roundup
Issued by NWS

Home | Current Version | Previous Version | Graphics & Text | Print | Product List | Glossary On
Versions: 1 2 3 4 5 6 7 8 9 10 11 12 13 14 15 16 17 18 19 20 21 22 23 24 25 26 27 28
000
ASUS45 KCYS 240610
RWRWY

WYOMING REGIONAL WEATHER ROUNDUP
NATIONAL WEATHER SERVICE CHEYENNE WY
1200 AM MDT FRI OCT 24 2014

NOTE:  "FAIR" INDICATES FEW OR NO CLOUDS BELOW 12,000 FEET
WITH NO SIGNIFICANT WEATHER AND/OR OBSTRUCTIONS TO VISIBILITY.

WYZ001-240700-
YELLOWSTONE NATIONAL PARK

CITY           SKY/WX    TMP DP  RH WIND       PRES   REMARKS
LK YELLOWSTONE   N/A     41  29  62 W3        30.19
6HR MIN TEMP:  41; 6HR MAX TEMP:  44;

W YELLOWSTONE  NOT AVBL

$$
WYZ002>013-054>058-071-098>099-240700-
NORTHERN WYOMING

CITY           SKY/WX    TMP DP  RH WIND       PRES   REMARKS
JACKSON        CLOUDY    50  25  37 SW3       30.16R
CODY           MOCLDY    57  25  28 W8        30.00
GREYBULL       CLOUDY    49  26  41 S8        29.95R
6HR MIN TEMP:  48; 6HR MAX TEMP:  65;

WORLAND        MOCLDY    41  29  62 CALM      29.96R
6HR MIN TEMP:  41; 6HR MAX TEMP:  65;

SHERIDAN       CLOUDY    44  31  60 VRB3      29.92S
6HR MIN TEMP:  42; 6HR MAX TEMP:  62;

BUFFALO        CLOUDY    53  25  33 NW9       29.96S
6HR MIN TEMP:  50; 6HR MAX TEMP:  59;

GILLETTE       CLOUDY    45  29  53 CALM      29.93S
6HR MIN TEMP:  42; 6HR MAX TEMP:  51;

HULETT         FAIR      45  30  57 SW5       29.95
NEWCASTLE      FAIR      45  28  53 CALM      29.98

$$
WYZ014>020-022>026-101>103-240700-
CENTRAL WYOMING

CITY           SKY/WX    TMP DP  RH WIND       PRES   REMARKS
BIG PINEY      MOCLDY    32  23  69 CALM      30.20S
6HR MIN TEMP:  32; 6HR MAX TEMP:  53;

PINEDALE       MOCLDY    34  28  80 W3        30.21
DUBOIS         CLOUDY    50  19  29 NW21G30   30.11S
LANDER         MOCLDY    52  22  30 VRB5      30.02F
6HR MIN TEMP:  50; 6HR MAX TEMP:  63;

RIVERTON       MOCLDY    48  23  37 NE6       30.04S
6HR MIN TEMP:  44; 6HR MAX TEMP:  60;

CASPER         CLOUDY    53  27  36 SW12      30.04R
6HR MIN TEMP:  51; 6HR MAX TEMP:  62;

DOUGLAS        MOCLDY    54  28  36 CALM      30.02F
6HR MIN TEMP:  54; 6HR MAX TEMP:  67;


$$
WYZ021-027>030-104>119-240700-
SOUTHERN WYOMING

CITY           SKY/WX    TMP DP  RH WIND       PRES   REMARKS
EVANSTON       MOCLDY    52  23  32 SW12      30.20R
6HR MIN TEMP:  50; 6HR MAX TEMP:  59;

KEMMERER       MOCLDY    43  27  52 CALM      30.21S
FORT BRIDGER   FAIR      54  23  30 SW8       30.22S
ROCK SPRINGS   MOCLDY    49  26  41 CALM      30.19S
6HR MIN TEMP:  47; 6HR MAX TEMP:  58;

DIXON          FAIR      44  33  64 CALM      30.26R
RAWLINS        PTCLDY    52  30  43 SW17      30.18S
6HR MIN TEMP:  48; 6HR MAX TEMP:  59;

SARATOGA       FAIR      46  32  57 SW10      30.23S
LARAMIE        MOCLDY    51  27  39 W14G21    30.19F
6HR MIN TEMP:  46; 6HR MAX TEMP:  56;

CHEYENNE       CLOUDY    52  31  44 W10       30.14S
6HR MIN TEMP:  51; 6HR MAX TEMP:  61;

TORRINGTON     CLOUDY    51  32  48 W7        30.01S
6HR MIN TEMP:  47; 6HR MAX TEMP:  68;

PINE BLUFFS    FAIR      46  34  61 W5        30.11F

$$



USA.gov is the U.S. government's official web portal to all federal, state and local government web resources and services.